UAII

Shymkent Airport

Airport
ICAO code
UAII
IATA Code
CIT
Summary
ICAO Region
APAC
ICAO Territory
Location

Shymkent,

Serving
Shymkent
Elevation
1384 ft
Coordinates
42° 21' 47" N , 69° 28' 47" E
KCC
Airport BS
Bird Strike
Airport CFIT
Altimeter Temperature Error Correction
Airport WX
Fog
Metar
Observation
UAII 272000Z 15002MPS 8000 NSC M08/M11 Q1027 NOSIG RMK QFE732/0977
Station
Shymkent
Date/Time
2023-01-27 20:00:00
Wind direction
150°
Lowest cloud amount
n/a
Temperature
-8°C
Dew point
-11°C
Humidity
78%
QNH
1027 hPa
Weather condition
n/a

Description

International airport serving the city of Shymkent, Kazakhstan.

Climatology

Cold Semi-arid climate (Köppen climate classification BSk). - Hot, sometimes extremely hot summers and cold, sometimes very cold winters. Some snowfall during the winter. Areas featuring cold semi-arid climates are sometimes subject to major temperature swings during a 24 hour period.

Runways

Designator Length Width Surface Rops
10/28 2800 44 CON No/No

Airport map

Aerial View

SKYbrary Partners:

Safety knowledge contributed by: